www.pogodaiklimat.ru

Погода и климат >> Архив погоды >> Молдова >> Фалешты


ПОГОДА в Фалештах

  • Прогноз погоды в Фалештах
  • Монитор погоды в Фалештах

АРХИВ ПОГОДЫ в Фалештах

Время (UTC), дата Ветер
(напр.,м/с)
 
Видим.   Явления Облачность Т
(С)
Тd
(С)
f
(%)
Тe
(С)
Тes
(С)
Комфортность P
(гПа)
Po
(гПа)
Тmin
(С)
Tmax
(С)
R
(мм)
R24
(мм)
S
(см)
03 9.09 В 3 10 км 6/0
[Ci fib]
+16.2 +5.9 50 +16 +16 1022.0 1002.6
06 9.09 В 2 20 км 3/0
[Ci fib]
+18.7 +7.6 48 +20 +22 1021.5 1002.3 +15.8
09 9.09 ЮВ 4 20 км 1/0
[Ci fib]
+25.9 +5.1 26 +25 +32 комфорт 1020.7 1001.9
12 9.09 Ю 4 20 км 4/0
[Ci]
+27.7 +4.0 22 +26 +32 жарко 1018.6 1000.0
15 9.09 ЮВ 4 20 км 9/0
[Cs]
+26.5 +3.2 22 +25 +26 комфорт 1017.5 998.8
18 9.09 ЮВ 2 10 км 9/0
[Ac trans Cs]
+21.9 +4.0 31 +22 +22 комфорт 1018.4 999.4 +28.1
21 9.09 Ю 2 10 км 3/0
[Ci fib]
+19.0 +4.1 37 +20 +20 1019.4 1000.2
00 10.09 ЮВ 2 10 км ясно +16.3 +6.8 53 +16 +16 1019.7 1000.3
03 10.09 В 3 10 км ясно +14.8 +7.6 62 +14 +14 1019.9 1000.4
06 10.09 В 1 20 км 8/0
[Ci]
+18.0 +9.2 56 +19 +22 1021.0 1001.7 +14.0
09 10.09 ЮВ 3 20 км 8/0
[Ci fib]
+24.7 +8.5 36 +25 +33 комфорт 1020.7 1001.9
12 10.09 Ю 3 20 км 6/0
[Ac trans Ci fib]
+26.4 +5.1 26 +26 +31 жарко 1020.0 1001.3
15 10.09 ЮВ 2 20 км 8/0
[Ac trans Ci]
+25.8 +6.5 29 +25 +26 комфорт 1019.8 1001.1
18 10.09 В 2 10 км 6/0
[Ci fib]
+21.9 +8.0 41 +23 +23 комфорт 1021.3 1002.3 +27.0
21 10.09 В 2 10 км 6/0
[Ci fib]
+19.2 +7.4 46 +20 +20 1022.1 1002.9
00 11.09 В 3 10 км 4/0
[Ci fib]
+16.6 +5.3 47 +16 +16 1023.3 1003.9
03 11.09 В 3 10 км 8/0
[Cs]
+15.2 +4.5 49 +15 +15 1023.9 1004.4
06 11.09 В 2 20 км 10/0
[Cs]
+17.0 +7.0 52 +17 +20 1025.2 1005.8 +14.7
09 11.09 ЮВ 2 20 км 9/0
[Cs]
+24.3 +5.5 30 +24 +33 комфорт 1025.6 1006.6
12 11.09 В 2 20 км 9/0
[Cc]
+27.5 +6.2 26 +27 +34 жарко 1024.4 1005.7
15 11.09 В 2 20 км 9/0
[Ac lent Cs]
+27.0 +4.3 23 +26 +27 жарко 1024.1 1005.3
18 11.09 В 1 10 км 8/0
[Cs]
+22.7 +6.2 34 +23 +23 комфорт 1024.7 1005.7 +27.8
21 11.09 В 1 10 км 4/0
[Ci fib]
+19.8 +5.6 39 +22 +22 комфорт 1025.1 1005.9
00 12.09 ЮВ 2 10 км 1/0
[Ci fib]
+17.2 +5.5 46 +18 +18 1025.3 1005.9
03 12.09 Ю 2 10 км ясно +15.8 +5.9 52 +16 +16 1026.1 1006.6
06 12.09 ЮВ 1 20 км 9/0
[Ci]
+19.8 +7.3 44 +22 +24 комфорт 1026.8 1007.5 +14.9
09 12.09 ЮВ 2 20 км 9/0
[Ci fib]
+25.8 +6.2 29 +25 +34 комфорт 1027.0 1008.1
12 12.09 В 1 20 км 9/0
[Ci sp]
+28.0 +4.3 22 +27 +35 жарко 1025.8 1007.1
15 12.09 ЮВ 1 20 км 8/0
[Ci fib]
+27.5 +5.5 25 +27 +28 жарко 1024.9 1006.2
18 12.09 С 2 10 км 4/0
[Ci fib]
+21.4 +6.2 37 +22 +22 комфорт 1026.0 1006.9 +29.0
21 12.09 С 2 10 км 6/0
[Ci]
+19.5 +5.8 41 +21 +21 комфорт 1026.3 1007.0
00 13.09 С 1 10 км 8/0
[Cs]
+17.2 +4.6 43 +18 +18 1026.4 1007.0
03 13.09 С 1 10 км 9/0
[Ci]
+14.8 +5.6 54 +15 +15 1026.5 1006.9
06 13.09 ЮЗ 1 20 км 3/0
[Ac cast]
+15.8 +7.8 59 +17 +19 1027.5 1008.0 +12.5
09 13.09 СЗ 2 20 км ясно +25.4 +10.9 40 +26 +36 жарко 1026.7 1007.8
12 13.09 З 2 20 км 1/1 600 м
[Cu med, cong]
+30.0 +7.4 24 +29 +37 жарко 1024.6 1006.0
15 13.09 З 3 20 км 3/0
[]
+28.3 +8.9 30 +28 +29 жарко 1023.2 1004.6
18 13.09 С 1 10 км ясно +22.0 +10.7 49 +24 +24 комфорт 1024.0 1005.0 +31.2
21 13.09 С 2 10 км 9/0
[Ac trans]
+20.4 +11.1 55 +23 +23 комфорт 1024.5 1005.3
00 14.09 С 2 10 км 9/5 600 м
[Cb calv Ac trans]
+19.2 +10.5 57 +21 +21 комфорт 1024.8 1005.6
03 14.09 СЗ 1 10 км 9/9 600 м
[Cb calv]
+17.6 +10.9 65 +19 +19 1024.6 1005.3
06 14.09 З 2 20 км 8/0
[Ac trans Cc]
+18.5 +11.8 65 +20 +21 1025.2 1005.9 +16.4
09 14.09 СЗ 3 20 км 9/8 600 м
[Cb calv Ac cuf]
+22.8 +13.5 56 +26 +27 жарко 1025.2 1006.2
12 14.09 С 4
{12}
20 км 9/6 600 м
[Cb calv Ac cuf Cc]
+20.2 +12.6 62 +22 +24 комфорт 1026.4 1007.2
15 14.09 С 4 20 км 1/0
[Ac lent]
+20.4 +7.1 42 +22 +22 комфорт 1026.0 1006.8
18 14.09 С 2 10 км 3/0
[Ci fib]
+15.6 +4.8 49 +16 +16 1027.4 1007.8 +23.6
21 14.09 С 2 10 км ясно +13.7 +4.6 54 +13 +13 1028.7 1009.0
00 15.09 С 3 10 км ясно +11.7 +4.6 62 +10 +10 1028.8 1009.0
03 15.09 С 1 10 км ясно +8.6 +4.5 75 +8 +8 1028.8 1008.7
06 15.09 СЗ 1 20 км 5/0
[Ci fib]
+11.8 +5.6 66 +12 +14 1028.7 1008.9 +7.8
09 15.09 СЗ 1 20 км 1/0
[Ci fib]
+19.6 +4.5 37 +21 +32 комфорт 1027.2 1007.9
12 15.09 З 3 20 км 3/0
[Ci]
+23.5 +6.4 33 +24 +30 комфорт 1024.4 1005.4
15 15.09 З 3 20 км 4/0
[Ci]
+22.6 +5.1 32 +23 +24 комфорт 1021.9 1002.9
18 15.09 В 2 10 км 4/0
[Ci fib]
+18.6 +4.5 39 +19 +19 1020.8 1001.6 +23.9
21 15.09 Ю 2 10 км 3/0
[Ci fib]
+15.8 +4.5 47 +16 +16 1019.4 1000.0

 

Местоположение метеостанции Фалешты (Молдова): широта 47.58 долгота 27.70 высота над уровнем моря 162 м.

В архиве по умолчанию представлена погода в Фалештах за последнюю неделю. Архивные данные за месяц целиком и за предыдущие месяцы, начиная с января 2011 года, Вы можете получить, выбрав интересующий диапазон дат из раскрывающегося списка и нажав кнопку "Ввод!".


*Определитесь, кто Вы:
робот инопланетянин человек

Внимание! Время в таблицах - всемирное. Для получения местного времени необходимо прибавить поправку, которая равна 2 ч.

Смотрите также архив погоды в соседних городах и на ближайших метеорологических станциях:

Погода в Бельцах (Молдова) (29 км)
Погода в Корнестах (Молдова) (40 км)
Погода в Штефанешты (Румыния) (45 км)
Погода в Яссы (Румыния) (46 км)
Погода в Бравичах (Молдова) (60 км)
Погода в Котнари (Румыния) (62 км)
Погода в Барнрва (Румыния) (64 км)
Погода в Кодрах (Молдова) (75 км)
Погода в Ботошани (Румыния) (80 км)
Погода в Сороках (Молдова) (82 км)

Пояснения к столбцам:

Ветер - указаны скорость ветра в м/с - средняя за 10 мин, порывы в срок и между сроками (в фигурных скобках) и направление, откуда дует ветер: С - северный, СВ - северо-восточный, В - восточный, ЮВ - юго-восточный, Ю - южный, ЮЗ - юго-западный, З - западный, СЗ - северо-западный.
Видимость - горизонтальная дальность видимости в метрах или километрах. При видимости от 1 до 10 км при отсутствии осадков обычно наблюдается дымка, при ухудшении видимости до 1 км и менее - туман. В сухую погоду видимость может ухудшаться дымом, пылью или мглою.
Явления - указаны атмосферные явления, наблюдавшиеся в срок или в последний час перед сроком; фигурными скобками обозначены явления, наблюдавшиеся между сроками (за 1-3 часа до срока); квадратными скобками обозначены град или гололедные отложения с указанием их диаметра в мм.
Облачность - указаны через наклонную черту общая и нижняя облачность в баллах и высота нижней границы облаков в метрах; квадратными скобками обозначены формы облаков: Ci - перистые, Cs - перисто-слоистые, Cc - перисто-кучевые, Ac - высококучевые, As - высокослоистые, Sc - слоисто-кучевые, Ns - слоисто-дождевые, Cu - кучевые, Cb - кучево-дождевые. Подробнее классификацию облаков см. в Атласе облаков (PDF).
T - Температура воздуха - температура, измеренная на высоте 2 м над землей.
Td - Температура точки росы - температура, при понижении до которой содержащийся в воздухе водяной пар достигнет насыщения.
f - Относительная влажность воздуха - влажноcть воздуха, измеренная на высоте 2 м над землей.
Te - Эффективная температура - температура, которую ощущает одетый по сезону человек в тени. Характеристика душности погоды. При расчете учитывается влияние влажности воздуха и скорости ветра на теплоощущения человека.
Tes - Эффективная температура на солнце - температура, которую ощущает человек, с поправкой на солнечный нагрев. Характеристика знойности погоды. Зависит от высоты солнца над горизонтом, облачности и скорости ветра. Ночью, в пасмурную погоду, а также при ветре 12 м/с и более поправка равна нулю.
P - Атмосферное давление - приведенное к уровню моря атмосферное давление.
Po - Атмосферное давление - измеренное на уровне метеостанции атмосферное давление.
Tmin - Минимальная температура - минимум температуры воздуха на высоте 2 м над землей.
Tmax - Максимальная температура - максимум температуры воздуха на высоте 2 м над землей.
R - Количество осадков - Количество выпавших осадков за период времени, мм. При наведении курсора мыши на число - период времени, за который выпало указанное количество осадков.
R24 - Количество осадков - Количество выпавших осадков за 24 часа, мм.
S - Снежный покров - Высота снежного покрова, см. При наведении курсора мыши на число - состояние снежного покрова и степень покрытия местности в баллах.